| time (UTC) | temp F | wind direction | speed knots | gust knots | rain 1hr in | rain 24hr in | rain mn in | humidity % | barometer mb |
| 20260506214417 | 59 | 176 | 2.6 | 5.2 | 0.00 | 0.00 | 0.00 | 88 | |
| 20260506213221 | 59 | 153 | 2.6 | 3.5 | 0.00 | 0.00 | 0.00 | 88 | |
| 20260506212104 | 59 | 193 | 4.3 | 9.6 | 0.00 | 0.00 | 0.00 | 88 | |
| 20260506210821 | 59 | 197 | 3.5 | 7.0 | 0.00 | 0.00 | 0.00 | 88 | |
| 20260506205647 | 59 | 160 | 6.1 | 13.0 | 0.00 | 0.00 | 0.00 | 88 | |
| 20260506204430 | 59 | 147 | 6.1 | 11.3 | 0.00 | 0.00 | 0.00 | 88 | |
| 20260506203217 | 58 | 200 | 5.2 | 7.8 | 0.00 | 0.00 | 0.00 | 87 | |
| 20260506202017 | 58 | 159 | 4.3 | 5.2 | 0.00 | 0.00 | 0.00 | 87 | |
| 20260506200823 | 57 | 191 | 3.5 | 11.3 | 0.00 | 0.00 | 0.00 | 85 | |
| 20260506195630 | 57 | 167 | 4.3 | 7.8 | 0.00 | 0.00 | 0.00 | 85 | |
| 20260506194421 | 57 | 192 | 5.2 | 7.0 | 0.00 | 0.00 | 0.00 | 85 | |
| 20260506193227 | 57 | 143 | 5.2 | 8.7 | 0.00 | 0.00 | 0.00 | 85 | |
| 20260506192019 | 57 | 181 | 2.6 | 3.5 | 0.00 | 0.00 | 0.00 | 85 | |
| 20260506190825 | 58 | 207 | 2.6 | 5.2 | 0.00 | 0.00 | 0.00 | 86 | |
| 20260506185637 | 58 | 152 | 4.3 | 7.0 | 0.00 | 0.00 | 0.00 | 85 | |
| 20260506184423 | 59 | 151 | 2.6 | 5.2 | 0.00 | 0.00 | 0.00 | 85 | |
| 20260506183235 | 59 | 171 | 3.5 | 4.3 | 0.00 | 0.00 | 0.00 | 84 | |
| 20260506182023 | 60 | 191 | 3.5 | 5.2 | 0.00 | 0.00 | 0.00 | 82 | |
| 20260506180819 | 62 | 191 | 4.3 | 6.1 | 0.00 | 0.00 | 0.00 | 81 | |
| 20260506175619 | 62 | 185 | 4.3 | 10.4 | 0.00 | 0.00 | 0.00 | 80 | |
| 20260506174505 | 62 | 136 | 5.2 | 11.3 | 0.00 | 0.00 | 0.00 | 80 | |
| 20260506173237 | 62 | 160 | 3.5 | 4.3 | 0.00 | 0.00 | 0.00 | 80 | |
| 20260506172021 | 63 | 142 | 4.3 | 7.0 | 0.00 | 0.00 | 0.00 | 78 | |
| 20260506170815 | 63 | 154 | 5.2 | 7.0 | 0.00 | 0.00 | 0.00 | 78 | |
| 20260506165641 | 64 | 126 | 6.1 | 8.7 | 0.00 | 0.00 | 0.00 | 78 | |
| 20260506164424 | 64 | 136 | 7.0 | 9.6 | 0.00 | 0.00 | 0.00 | 77 | |
| 20260506163219 | 65 | 156 | 5.2 | 9.6 | 0.00 | 0.00 | 0.00 | 77 | |
| 20260506162020 | 67 | 159 | 5.2 | 7.8 | 0.00 | 0.00 | 0.00 | 76 | |
| 20260506160829 | 67 | 146 | 7.0 | 11.3 | 0.00 | 0.00 | 0.00 | 76 | |
| 20260506155623 | 67 | 159 | 6.1 | 9.6 | 0.00 | 0.00 | 0.00 | 76 | |
| 20260506154415 | 67 | 140 | 7.8 | 11.3 | 0.00 | 0.00 | 0.00 | 76 | |
| 20260506153221 | 68 | 162 | 4.3 | 5.2 | 0.00 | 0.00 | 0.00 | 76 | |
| 20260506152018 | 68 | 174 | 2.6 | 4.3 | 0.00 | 0.00 | 0.00 | 76 | |
| 20260506150839 | 68 | 171 | 4.3 | 8.7 | 0.00 | 0.00 | 0.00 | 76 | |
| 20260506145625 | 68 | 145 | 5.2 | 7.0 | 0.00 | 0.00 | 0.00 | 76 | |
| 20260506144429 | 68 | 160 | 5.2 | 8.7 | 0.00 | 0.00 | 0.00 | 77 | |
| 20260506143223 | 67 | 173 | 4.3 | 7.0 | 0.00 | 0.00 | 0.00 | 78 | |
| 20260506142035 | 67 | 169 | 5.2 | 7.8 | 0.00 | 0.00 | 0.00 | 78 | |
| 20260506140829 | 67 | 132 | 4.3 | 7.0 | 0.00 | 0.00 | 0.00 | 80 | |
| 20260506135627 | 66 | 193 | 4.3 | 7.8 | 0.00 | 0.00 | 0.00 | 81 | |
| 20260506134419 | 66 | 180 | 4.3 | 6.1 | 0.00 | 0.00 | 0.00 | 81 | |
| 20260506133229 | 66 | 168 | 3.5 | 8.7 | 0.00 | 0.00 | 0.00 | 81 | |
| 20260506132017 | 66 | 160 | 5.2 | 9.6 | 0.00 | 0.00 | 0.00 | 81 | |
| 20260506130823 | 66 | 193 | 4.3 | 6.1 | 0.00 | 0.00 | 0.00 | 82 | |
| 20260506125615 | 66 | 146 | 4.3 | 6.1 | 0.00 | 0.00 | 0.00 | 84 | |
| 20260506124429 | 65 | 194 | 4.3 | 5.2 | 0.00 | 0.00 | 0.00 | 85 | |
| 20260506123229 | 63 | 206 | 4.3 | 7.8 | 0.00 | 0.00 | 0.00 | 86 | |
| 20260506122015 | 63 | 188 | 3.5 | 6.1 | 0.00 | 0.00 | 0.00 | 86 | |
| 20260506120829 | 64 | 189 | 3.5 | 5.2 | 0.00 | 0.00 | 0.00 | 86 | |
| 20260506115617 | 64 | 195 | 3.5 | 7.0 | 0.00 | 0.00 | 0.00 | 87 | |
| 20260506114423 | 62 | 214 | 3.5 | 5.2 | 0.00 | 0.00 | 0.00 | 87 | |
| 20260506113249 | 62 | 196 | 2.6 | 3.5 | 0.00 | 0.00 | 0.00 | 87 | |
| 20260506112021 | 62 | 169 | 3.5 | 4.3 | 0.00 | 0.00 | 0.00 | 87 | |
| 20260506110827 | 61 | 135 | 4.3 | 7.8 | 0.00 | 0.00 | 0.00 | 87 | |
| 20260506105619 | 62 | 145 | 5.2 | 8.7 | 0.00 | 0.00 | 0.00 | 87 | |
| 20260506104425 | 62 | 161 | 5.2 | 11.3 | 0.00 | 0.00 | 0.00 | 88 | |
| 20260506103217 | 62 | 175 | 5.2 | 8.7 | 0.00 | 0.00 | 0.00 | 88 | |
| 20260506102023 | 61 | 155 | 5.2 | 7.0 | 0.00 | 0.00 | 0.00 | 89 | |
| 20260506100815 | 60 | 166 | 5.2 | 7.8 | 0.00 | 0.00 | 0.00 | 89 | |
| 20260506095618 | 60 | 132 | 3.5 | 7.0 | 0.00 | 0.00 | 0.00 | 89 | |
| 20260506094448 | 60 | 139 | 4.3 | 9.6 | 0.00 | 0.00 | 0.00 | 90 | |
| 20260506093227 | 60 | 157 | 4.3 | 8.7 | 0.00 | 0.00 | 0.00 | 90 | |
| 20260506092025 | 60 | 139 | 4.3 | 7.0 | 0.00 | 0.00 | 0.00 | 90 | |
| 20260506090817 | 60 | 153 | 5.2 | 8.7 | 0.00 | 0.00 | 0.00 | 91 | |
| 20260506085623 | 60 | 131 | 6.1 | 13.0 | 0.00 | 0.00 | 0.00 | 91 | |
| 20260506084429 | 59 | 182 | 4.3 | 6.1 | 0.00 | 0.00 | 0.00 | 90 | |
| 20260506083221 | 59 | 193 | 6.1 | 7.8 | 0.00 | 0.00 | 0.00 | 90 | |
| 20260506082028 | 59 | 146 | 5.2 | 9.6 | 0.00 | 0.00 | 0.00 | 90 | |
| 20260506080828 | 59 | 143 | 6.1 | 9.6 | 0.00 | 0.00 | 0.00 | 90 | |
| 20260506073239 | 58 | 139 | 2.6 | 5.2 | 0.00 | 0.00 | 0.00 | 89 | |
| 20260506072015 | 58 | 140 | 2.6 | 7.8 | 0.00 | 0.00 | 0.00 | 88 | |
| 20260506070821 | 58 | 163 | 2.6 | 5.2 | 0.00 | 0.00 | 0.00 | 88 | |
| 20260506062028 | 59 | 138 | 2.6 | 6.1 | 0.00 | 0.00 | 0.00 | 83 | |
| 20260506060824 | 61 | 177 | 2.6 | 5.2 | 0.00 | 0.00 | 0.00 | 82 | |
| 20260506050840 | 61 | 169 | 3.5 | 6.1 | 0.00 | 0.00 | 0.00 | 82 | |
| 20260506044423 | 60 | 152 | 2.6 | 5.2 | 0.00 | 0.00 | 0.00 | 83 | |
| 20260506043215 | 60 | 140 | 3.5 | 7.0 | 0.00 | 0.00 | 0.00 | 83 | |
| 20260506042047 | 60 | 147 | 4.3 | 9.6 | 0.00 | 0.00 | 0.00 | 83 | |
| 20260506040816 | 60 | 142 | 3.5 | 7.0 | 0.00 | 0.00 | 0.00 | 83 | |
| 20260506035620 | 60 | 181 | 2.6 | 3.5 | 0.00 | 0.00 | 0.00 | 83 | |
| 20260506034427 | 60 | 173 | 2.6 | 4.3 | 0.00 | 0.00 | 0.00 | 83 | |
| 20260506033217 | 60 | 159 | 3.5 | 8.7 | 0.00 | 0.00 | 0.00 | 83 | |
| 20260506032108 | 60 | 143 | 3.5 | 5.2 | 0.00 | 0.00 | 0.00 | 84 | |
| 20260506030815 | 60 | 135 | 4.3 | 7.0 | 0.00 | 0.00 | 0.00 | 84 | |
| 20260506025641 | 60 | 166 | 4.3 | 7.0 | 0.00 | 0.00 | 0.00 | 84 | |
| 20260506024427 | 59 | 165 | 4.3 | 5.2 | 0.00 | 0.00 | 0.00 | 85 | |
| 20260506023247 | 59 | 154 | 3.5 | 5.2 | 0.00 | 0.00 | 0.00 | 85 | |
| 20260506022027 | 59 | 140 | 2.6 | 3.5 | 0.00 | 0.00 | 0.00 | 85 | |
| 20260506020827 | 59 | 168 | 3.5 | 5.2 | 0.00 | 0.00 | 0.00 | 85 | |
| 20260506015623 | 59 | 125 | 3.5 | 8.7 | 0.00 | 0.00 | 0.00 | 85 | |
| 20260506014417 | 59 | 169 | 3.5 | 5.2 | 0.00 | 0.00 | 0.00 | 85 | |
| 20260506013221 | 59 | 157 | 3.5 | 6.1 | 0.00 | 0.00 | 0.00 | 85 | |
| 20260506012027 | 59 | 176 | 3.5 | 7.0 | 0.00 | 0.00 | 0.00 | 85 | |
| 20260506010819 | 59 | 155 | 3.5 | 6.1 | 0.00 | 0.00 | 0.00 | 85 | |
| 20260506005647 | 59 | 175 | 3.5 | 7.8 | 0.00 | 0.00 | 0.00 | 84 | |
| 20260506004427 | 59 | 172 | 4.3 | 7.0 | 0.00 | 0.00 | 0.00 | 84 | |
| 20260506003247 | 59 | 160 | 4.3 | 7.0 | 0.00 | 0.00 | 0.00 | 84 | |
| 20260506002055 | 59 | 149 | 3.5 | 9.6 | 0.00 | 0.00 | 0.00 | 84 | |
| 20260506000847 | 59 | 177 | 4.3 | 6.1 | 0.00 | 0.00 | 0.00 | 84 | |
| 20260505235627 | 59 | 155 | 5.2 | 10.4 | 0.00 | 0.00 | 0.00 | 83 | |
| 20260505234426 | 59 | 192 | 4.3 | 5.2 | 0.00 | 0.00 | 0.00 | 83 | |
| 20260505233225 | 59 | 175 | 4.3 | 7.0 | 0.00 | 0.00 | 0.00 | 83 | |
| 20260505232017 | 59 | 166 | 4.3 | 6.1 | 0.00 | 0.00 | 0.00 | 83 | |
| 20260505230826 | 59 | 180 | 4.3 | 6.1 | 0.00 | 0.00 | 0.00 | 83 | |
| 20260505225615 | 59 | 190 | 3.5 | 6.1 | 0.00 | 0.00 | 0.00 | 83 | |
| 20260505224427 | 59 | 191 | 4.3 | 10.4 | 0.00 | 0.00 | 0.00 | 83 | |
| 20260505223226 | 58 | 150 | 4.3 | 7.8 | 0.00 | 0.00 | 0.00 | 83 | |
| 20260505222026 | 58 | 154 | 4.3 | 7.0 | 0.00 | 0.00 | 0.00 | 83 | |
| 20260505220826 | 58 | 188 | 5.2 | 6.1 | 0.00 | 0.00 | 0.00 | 83 |